Year,Month,Day,Hour,Minute,Value (Times are PST for temperature in C)
2009,06,09,00,00,14.70
2009,06,09,00,01,14.70
2009,06,09,00,02,14.60
2009,06,09,00,03,14.60
2009,06,09,00,04,14.50
2009,06,09,00,05,14.50
2009,06,09,00,06,14.40
2009,06,09,00,07,14.40
2009,06,09,00,08,14.30
2009,06,09,00,09,14.20
2009,06,09,00,10,14.20
2009,06,09,00,11,14.20
2009,06,09,00,12,14.20
2009,06,09,00,13,14.20
2009,06,09,00,14,14.20
2009,06,09,00,15,14.10
2009,06,09,00,16,14.10
2009,06,09,00,17,14.20
2009,06,09,00,18,14.20
2009,06,09,00,19,14.20
2009,06,09,00,20,14.20
2009,06,09,00,21,14.20
2009,06,09,00,22,14.20
2009,06,09,00,23,14.20
2009,06,09,00,24,14.20
2009,06,09,00,25,14.10
2009,06,09,00,26,14.10
2009,06,09,00,27,14.10
2009,06,09,00,28,14.00
2009,06,09,00,29,14.00
2009,06,09,00,30,14.00
2009,06,09,00,31,13.90
2009,06,09,00,32,13.90
2009,06,09,00,33,13.90
2009,06,09,00,34,13.90
2009,06,09,00,35,13.80
2009,06,09,00,36,13.70
2009,06,09,00,37,13.70
2009,06,09,00,38,13.60
2009,06,09,00,39,13.60
2009,06,09,00,40,13.50
2009,06,09,00,41,13.50
2009,06,09,00,42,13.40
2009,06,09,00,43,13.40
2009,06,09,00,44,13.40
2009,06,09,00,45,13.30
2009,06,09,00,46,13.30
2009,06,09,00,47,13.30
2009,06,09,00,48,13.30
2009,06,09,00,49,13.30
2009,06,09,00,50,13.30
2009,06,09,00,51,13.30
2009,06,09,00,52,13.40
2009,06,09,00,53,13.40
2009,06,09,00,54,13.40
2009,06,09,00,55,13.40
2009,06,09,00,56,13.40
2009,06,09,00,57,13.40
2009,06,09,00,58,13.40
2009,06,09,00,59,13.30
2009,06,09,01,00,13.30
2009,06,09,01,01,13.30
2009,06,09,01,02,13.30
2009,06,09,01,03,13.30
2009,06,09,01,04,13.20
2009,06,09,01,05,13.20
2009,06,09,01,06,13.10
2009,06,09,01,07,13.10
2009,06,09,01,08,13.10
2009,06,09,01,09,13.00
2009,06,09,01,10,13.00
2009,06,09,01,11,13.00
2009,06,09,01,12,13.00
2009,06,09,01,13,12.90
2009,06,09,01,14,12.90
2009,06,09,01,15,12.90
2009,06,09,01,16,12.90
2009,06,09,01,17,12.90
2009,06,09,01,18,12.80
2009,06,09,01,19,12.80
2009,06,09,01,20,12.80
2009,06,09,01,21,12.80
2009,06,09,01,22,12.80
2009,06,09,01,23,12.80
2009,06,09,01,24,12.80
2009,06,09,01,25,12.80
2009,06,09,01,26,12.80
2009,06,09,01,27,12.80
2009,06,09,01,28,12.80
2009,06,09,01,29,12.80
2009,06,09,01,30,12.80
2009,06,09,01,31,12.70
2009,06,09,01,32,12.70
2009,06,09,01,33,12.70
2009,06,09,01,38,12.60
2009,06,09,01,39,12.50
2009,06,09,01,40,12.50
2009,06,09,01,41,12.50
2009,06,09,01,42,12.50
2009,06,09,01,43,12.50
2009,06,09,01,44,12.50
2009,06,09,01,45,12.50
2009,06,09,01,46,12.50
2009,06,09,01,47,12.40
2009,06,09,01,48,12.40
2009,06,09,01,49,12.40
2009,06,09,01,50,12.40
2009,06,09,01,51,12.40
2009,06,09,01,52,12.40
2009,06,09,01,53,12.40
2009,06,09,01,54,12.30
2009,06,09,01,55,12.30
2009,06,09,01,56,12.30
2009,06,09,01,57,12.30
2009,06,09,01,58,12.30
2009,06,09,01,59,12.30
2009,06,09,02,00,12.30
2009,06,09,02,01,12.30
2009,06,09,02,02,12.30
2009,06,09,02,03,12.40
2009,06,09,02,04,12.40
2009,06,09,02,05,12.40
2009,06,09,02,06,12.40
2009,06,09,02,07,12.40
2009,06,09,02,08,12.40
2009,06,09,02,09,12.40
2009,06,09,02,10,12.40
2009,06,09,02,11,12.40
2009,06,09,02,12,12.40
2009,06,09,02,13,12.40
2009,06,09,02,14,12.40
2009,06,09,02,15,12.40
2009,06,09,02,16,12.40
2009,06,09,02,17,12.40
2009,06,09,02,18,12.40
2009,06,09,02,19,12.40
2009,06,09,02,20,12.40
2009,06,09,02,21,12.40
2009,06,09,02,22,12.40
2009,06,09,02,23,12.40
2009,06,09,02,24,12.40
2009,06,09,02,25,12.50
2009,06,09,02,26,12.50
2009,06,09,02,27,12.50
2009,06,09,02,28,12.50
2009,06,09,02,29,12.50
2009,06,09,02,30,12.50
2009,06,09,02,31,12.60
2009,06,09,02,32,12.60
2009,06,09,02,33,12.60
2009,06,09,02,34,12.60
2009,06,09,02,35,12.60
2009,06,09,02,36,12.60
2009,06,09,02,37,12.60
2009,06,09,02,38,12.60
2009,06,09,02,39,12.60
2009,06,09,02,40,12.60
2009,06,09,02,41,12.60
2009,06,09,02,42,12.60
2009,06,09,02,43,12.60
2009,06,09,02,44,12.60
2009,06,09,02,45,12.60
2009,06,09,02,46,12.60
2009,06,09,02,47,12.60
2009,06,09,02,48,12.70
2009,06,09,02,49,12.70
2009,06,09,02,50,12.70
2009,06,09,02,51,12.70
2009,06,09,02,52,12.70
2009,06,09,02,53,12.80
2009,06,09,02,54,12.80
2009,06,09,02,55,12.80
2009,06,09,02,56,12.80
2009,06,09,02,57,12.80
2009,06,09,02,58,12.80
2009,06,09,02,59,12.80
2009,06,09,03,00,12.80
2009,06,09,03,01,12.80
2009,06,09,03,02,12.80
2009,06,09,03,03,12.80
2009,06,09,03,04,12.70
2009,06,09,03,05,12.70
2009,06,09,03,06,12.70
2009,06,09,03,07,12.70
2009,06,09,03,08,12.70
2009,06,09,03,09,12.60
2009,06,09,03,10,12.60
2009,06,09,03,11,12.60
2009,06,09,03,12,12.60
2009,06,09,03,13,12.60
2009,06,09,03,14,12.60
2009,06,09,03,15,12.60
2009,06,09,03,16,12.50
2009,06,09,03,17,12.50
2009,06,09,03,18,12.50
2009,06,09,03,19,12.50
2009,06,09,03,20,12.50
2009,06,09,03,21,12.50
2009,06,09,03,22,12.40
2009,06,09,03,23,12.40
2009,06,09,03,24,12.40
2009,06,09,03,25,12.40
2009,06,09,03,26,12.40
2009,06,09,03,27,12.40
2009,06,09,03,28,12.30
2009,06,09,03,29,12.30
2009,06,09,03,30,12.30
2009,06,09,03,31,12.30
2009,06,09,03,32,12.30
2009,06,09,03,33,12.30
2009,06,09,03,34,12.30
2009,06,09,03,35,12.30
2009,06,09,03,36,12.30
2009,06,09,03,37,12.30
2009,06,09,03,38,12.30
2009,06,09,03,39,12.20
2009,06,09,03,40,12.20
2009,06,09,03,41,12.20
2009,06,09,03,42,12.20
2009,06,09,03,43,12.20
2009,06,09,03,44,12.20
2009,06,09,03,45,12.20
2009,06,09,03,46,12.20
2009,06,09,03,47,12.20
2009,06,09,03,48,12.20
2009,06,09,03,49,12.20
2009,06,09,03,50,12.10
2009,06,09,03,51,12.10
2009,06,09,03,52,12.10
2009,06,09,03,53,12.10
2009,06,09,03,54,12.10
2009,06,09,03,55,12.10
2009,06,09,03,56,12.10
2009,06,09,03,57,12.10
2009,06,09,03,58,12.10
2009,06,09,03,59,12.10
2009,06,09,04,00,12.10
2009,06,09,04,01,12.10
2009,06,09,04,02,12.10
2009,06,09,04,03,12.00
2009,06,09,04,04,12.00
2009,06,09,04,05,12.00
2009,06,09,04,06,12.00
2009,06,09,04,07,12.00
2009,06,09,04,08,12.00
2009,06,09,04,09,11.90
2009,06,09,04,10,11.90
2009,06,09,04,11,11.90
2009,06,09,04,12,11.90
2009,06,09,04,13,11.90
2009,06,09,04,14,11.90
2009,06,09,04,15,11.80
2009,06,09,04,16,11.80
2009,06,09,04,17,11.80
2009,06,09,04,18,11.80
2009,06,09,04,19,11.80
2009,06,09,04,20,11.80
2009,06,09,04,21,11.80
2009,06,09,04,22,11.80
2009,06,09,04,23,11.80
2009,06,09,04,24,11.80
2009,06,09,04,25,11.70
2009,06,09,04,26,11.70
2009,06,09,04,27,11.70
2009,06,09,04,28,11.70
2009,06,09,04,29,11.60
2009,06,09,04,30,11.60
2009,06,09,04,31,11.60
2009,06,09,04,32,11.60
2009,06,09,04,33,11.60
2009,06,09,04,34,11.60
2009,06,09,04,35,11.60
2009,06,09,04,36,11.60
2009,06,09,04,37,11.60
2009,06,09,04,38,11.60
2009,06,09,04,39,11.50
2009,06,09,04,40,11.40
2009,06,09,04,41,11.40
2009,06,09,04,42,11.40
2009,06,09,04,43,11.40
2009,06,09,04,44,11.40
2009,06,09,04,45,11.40
2009,06,09,04,46,11.40
2009,06,09,04,47,11.40
2009,06,09,04,48,11.40
2009,06,09,04,49,11.40
2009,06,09,04,50,11.40
2009,06,09,04,51,11.40
2009,06,09,04,52,11.40
2009,06,09,04,53,11.40
2009,06,09,04,54,11.30
2009,06,09,04,55,11.30
2009,06,09,04,56,11.30
2009,06,09,04,57,11.30
2009,06,09,04,58,11.30
2009,06,09,04,59,11.30
2009,06,09,05,00,11.30
2009,06,09,05,01,11.30
2009,06,09,05,02,11.30
2009,06,09,05,03,11.30
2009,06,09,05,04,11.30
2009,06,09,05,05,11.30
2009,06,09,05,06,11.30
2009,06,09,05,07,11.30
2009,06,09,05,08,11.30
2009,06,09,05,09,11.30
2009,06,09,05,10,11.30
2009,06,09,05,11,11.30
2009,06,09,05,12,11.30
2009,06,09,05,13,11.30
2009,06,09,05,14,11.30
2009,06,09,05,15,11.30
2009,06,09,05,16,11.30
2009,06,09,05,17,11.30
2009,06,09,05,18,11.30
2009,06,09,05,19,11.20
2009,06,09,05,20,11.20
2009,06,09,05,21,11.20
2009,06,09,05,22,11.20
2009,06,09,05,23,11.20
2009,06,09,05,24,11.20
2009,06,09,05,25,11.20
2009,06,09,05,26,11.20
2009,06,09,05,27,11.20
2009,06,09,05,28,11.30
2009,06,09,05,29,11.30
2009,06,09,05,30,11.30
2009,06,09,05,31,11.30
2009,06,09,05,32,11.30
2009,06,09,05,33,11.30
2009,06,09,05,34,11.30
2009,06,09,05,35,11.30
2009,06,09,05,36,11.30
2009,06,09,05,37,11.30
2009,06,09,05,38,11.30
2009,06,09,05,39,11.30
2009,06,09,05,40,11.30
2009,06,09,05,41,11.30
2009,06,09,05,42,11.30
2009,06,09,05,43,11.30
2009,06,09,05,44,11.30
2009,06,09,05,45,11.30
2009,06,09,05,46,11.30
2009,06,09,05,47,11.30
2009,06,09,05,48,11.30
2009,06,09,05,49,11.30
2009,06,09,05,50,11.30
2009,06,09,05,51,11.30
2009,06,09,05,52,11.30
2009,06,09,05,53,11.30
2009,06,09,05,54,11.30
2009,06,09,05,55,11.20
2009,06,09,05,56,11.20
2009,06,09,05,57,11.20
2009,06,09,05,58,11.20
2009,06,09,05,59,11.20
2009,06,09,06,00,11.20
2009,06,09,06,01,11.20
2009,06,09,06,02,11.20
2009,06,09,06,03,11.20
2009,06,09,06,04,11.20
2009,06,09,06,05,11.20
2009,06,09,06,06,11.20
2009,06,09,06,07,11.20
2009,06,09,06,08,11.20
2009,06,09,06,09,11.30
2009,06,09,06,10,11.30
2009,06,09,06,11,11.30
2009,06,09,06,12,11.30
2009,06,09,06,13,11.40
2009,06,09,06,14,11.40
2009,06,09,06,15,11.40
2009,06,09,06,16,11.40
2009,06,09,06,17,11.40
2009,06,09,06,18,11.40
2009,06,09,06,19,11.40
2009,06,09,06,20,11.40
2009,06,09,06,21,11.40
2009,06,09,06,22,11.50
2009,06,09,06,23,11.60
2009,06,09,06,24,11.60
2009,06,09,06,25,11.60
2009,06,09,06,26,11.70
2009,06,09,06,27,11.70
2009,06,09,06,28,11.80
2009,06,09,06,29,11.80
2009,06,09,06,30,11.80
2009,06,09,06,31,11.80
2009,06,09,06,32,11.90
2009,06,09,06,33,11.90
2009,06,09,06,34,12.00
2009,06,09,06,35,12.00
2009,06,09,06,36,12.10
2009,06,09,06,37,12.20
2009,06,09,06,38,12.20
2009,06,09,06,39,12.30
2009,06,09,06,40,12.30
2009,06,09,06,41,12.40
2009,06,09,06,42,12.40
2009,06,09,06,43,12.50
2009,06,09,06,44,12.50
2009,06,09,06,45,12.50
2009,06,09,06,46,12.60
2009,06,09,06,47,12.60
2009,06,09,06,48,12.60
2009,06,09,06,49,12.70
2009,06,09,06,50,12.70
2009,06,09,06,51,12.70
2009,06,09,06,52,12.80
2009,06,09,06,53,12.80
2009,06,09,06,54,12.80
2009,06,09,06,55,12.80
2009,06,09,06,56,12.80
2009,06,09,06,57,12.80
2009,06,09,06,58,12.90
2009,06,09,06,59,12.90
2009,06,09,07,00,13.00
2009,06,09,07,01,13.00
2009,06,09,07,02,13.00
2009,06,09,07,03,13.10
2009,06,09,07,04,13.10
2009,06,09,07,05,13.10
2009,06,09,07,06,13.20
2009,06,09,07,07,13.20
2009,06,09,07,08,13.30
2009,06,09,07,09,13.30
2009,06,09,07,10,13.30
2009,06,09,07,11,13.30
2009,06,09,07,12,13.40
2009,06,09,07,13,13.40
2009,06,09,07,14,13.40
2009,06,09,07,15,13.40
2009,06,09,07,16,13.50
2009,06,09,07,17,13.50
2009,06,09,07,18,13.60
2009,06,09,07,19,13.60
2009,06,09,07,20,13.60
2009,06,09,07,21,13.70
2009,06,09,07,22,13.70
2009,06,09,07,23,13.70
2009,06,09,07,24,13.70
2009,06,09,07,25,13.80
2009,06,09,07,26,13.80
2009,06,09,07,27,13.90
2009,06,09,07,28,13.90
2009,06,09,07,29,14.00
2009,06,09,07,30,14.00
2009,06,09,07,31,14.00
2009,06,09,07,32,14.00
2009,06,09,07,33,14.10
2009,06,09,07,34,14.10
2009,06,09,07,35,14.20
2009,06,09,07,36,14.20
2009,06,09,07,37,14.20
2009,06,09,07,38,14.20
2009,06,09,07,39,14.20
2009,06,09,07,40,14.20
2009,06,09,07,41,14.20
2009,06,09,07,42,14.30
2009,06,09,07,43,14.30
2009,06,09,07,44,14.40
2009,06,09,07,45,14.50
2009,06,09,07,46,14.50
2009,06,09,07,47,14.50
2009,06,09,07,48,14.60
2009,06,09,07,49,14.60
2009,06,09,07,50,14.60
2009,06,09,07,51,14.70
2009,06,09,07,52,14.70
2009,06,09,07,53,14.80
2009,06,09,07,54,14.80
2009,06,09,07,55,14.90
2009,06,09,07,56,15.00
2009,06,09,07,57,15.00
2009,06,09,07,58,15.10
2009,06,09,07,59,15.10
2009,06,09,08,00,15.10
2009,06,09,08,01,15.20
2009,06,09,08,02,15.30
2009,06,09,08,03,15.30
2009,06,09,08,04,15.30
2009,06,09,08,05,15.40
2009,06,09,08,06,15.40
2009,06,09,08,07,15.50
2009,06,09,08,08,15.50
2009,06,09,08,09,15.50
2009,06,09,08,10,15.50
2009,06,09,08,11,15.50
2009,06,09,08,12,15.50
2009,06,09,08,13,15.50
2009,06,09,08,14,15.50
2009,06,09,08,15,15.40
2009,06,09,08,16,15.40
2009,06,09,08,17,15.40
2009,06,09,08,18,15.30
2009,06,09,08,19,15.30
2009,06,09,08,20,15.30
2009,06,09,08,21,15.30
2009,06,09,08,22,15.30
2009,06,09,08,23,15.30
2009,06,09,08,24,15.30
2009,06,09,08,25,15.30
2009,06,09,08,26,15.30
2009,06,09,08,27,15.30
2009,06,09,08,28,15.40
2009,06,09,08,29,15.40
2009,06,09,08,30,15.50
2009,06,09,08,31,15.50
2009,06,09,08,32,15.60
2009,06,09,08,33,15.70
2009,06,09,08,34,15.80
2009,06,09,08,35,15.80
2009,06,09,08,36,15.80
2009,06,09,08,37,15.80
2009,06,09,08,38,15.80
2009,06,09,08,39,15.90
2009,06,09,08,40,15.90
2009,06,09,08,41,15.90
2009,06,09,08,42,16.00
2009,06,09,08,43,16.10
2009,06,09,08,44,16.10
2009,06,09,08,45,16.10
2009,06,09,08,46,16.10
2009,06,09,08,47,16.10
2009,06,09,08,48,16.10
2009,06,09,08,49,16.10
2009,06,09,08,50,16.10
2009,06,09,08,51,16.10
2009,06,09,08,52,16.20
2009,06,09,08,53,16.20
2009,06,09,08,54,16.30
2009,06,09,08,55,16.40
2009,06,09,08,56,16.40
2009,06,09,08,57,16.40
2009,06,09,08,58,16.40
2009,06,09,08,59,16.40
2009,06,09,09,00,16.40
2009,06,09,09,01,16.40
2009,06,09,09,02,16.40
2009,06,09,09,03,16.30
2009,06,09,09,04,16.30
2009,06,09,09,05,16.30
2009,06,09,09,06,16.30
2009,06,09,09,07,16.30
2009,06,09,09,08,16.30
2009,06,09,09,09,16.30
2009,06,09,09,10,16.40
2009,06,09,09,11,16.40
2009,06,09,09,12,16.40
2009,06,09,09,13,16.40
2009,06,09,09,14,16.40
2009,06,09,09,15,16.40
2009,06,09,09,16,16.40
2009,06,09,09,17,16.40
2009,06,09,09,18,16.40
2009,06,09,09,19,16.40
2009,06,09,09,20,16.40
2009,06,09,09,21,16.40
2009,06,09,09,22,16.50
2009,06,09,09,23,16.60
2009,06,09,09,24,16.60
2009,06,09,09,25,16.70
2009,06,09,09,26,16.70
2009,06,09,09,27,16.70
2009,06,09,09,28,16.80
2009,06,09,09,29,16.80
2009,06,09,09,30,16.90
2009,06,09,09,31,16.80
2009,06,09,09,32,16.80
2009,06,09,09,33,16.70
2009,06,09,09,34,16.70
2009,06,09,09,35,16.70
2009,06,09,09,36,16.70
2009,06,09,09,37,16.50
2009,06,09,09,38,16.40
2009,06,09,09,39,16.40
2009,06,09,09,40,16.40
2009,06,09,09,41,16.40
2009,06,09,09,42,16.40
2009,06,09,09,43,16.20
2009,06,09,09,44,16.10
2009,06,09,09,45,16.00
2009,06,09,09,46,15.90
2009,06,09,09,47,15.90
2009,06,09,09,48,15.90
2009,06,09,09,49,15.90
2009,06,09,09,50,15.90
2009,06,09,09,51,15.90
2009,06,09,09,52,15.90
2009,06,09,09,53,15.90
2009,06,09,09,54,15.80
2009,06,09,09,55,15.80
2009,06,09,09,56,15.70
2009,06,09,09,57,15.60
2009,06,09,09,58,15.60
2009,06,09,09,59,15.60
2009,06,09,10,00,15.60
2009,06,09,10,01,15.60
2009,06,09,10,02,15.60
2009,06,09,10,03,15.60
2009,06,09,10,04,15.60
2009,06,09,10,05,15.60
2009,06,09,10,06,15.50
2009,06,09,10,07,15.50
2009,06,09,10,08,15.50
2009,06,09,10,09,15.50
2009,06,09,10,10,15.40
2009,06,09,10,11,15.40
2009,06,09,10,12,15.50
2009,06,09,10,13,15.50
2009,06,09,10,14,15.60
2009,06,09,10,15,15.60
2009,06,09,10,16,15.50
2009,06,09,10,17,15.50
2009,06,09,10,18,15.40
2009,06,09,10,19,15.40
2009,06,09,10,20,15.40
2009,06,09,10,21,15.40
2009,06,09,10,22,15.50
2009,06,09,10,23,15.60
2009,06,09,10,24,15.60
2009,06,09,10,25,15.50
2009,06,09,10,26,15.50
2009,06,09,10,27,15.50
2009,06,09,10,28,15.50
2009,06,09,10,29,15.60
2009,06,09,10,30,15.60
2009,06,09,10,31,15.70
2009,06,09,10,32,15.70
2009,06,09,10,33,15.80
2009,06,09,10,34,15.80
2009,06,09,10,35,15.90
2009,06,09,10,36,16.00
2009,06,09,10,37,16.10
2009,06,09,10,38,16.20
2009,06,09,10,39,16.20
2009,06,09,10,40,16.30
2009,06,09,10,41,16.30
2009,06,09,10,42,16.20
2009,06,09,10,43,16.10
2009,06,09,10,44,16.10
2009,06,09,10,45,16.10
2009,06,09,10,46,16.10
2009,06,09,10,47,16.10
2009,06,09,10,48,15.90
2009,06,09,10,49,15.90
2009,06,09,10,50,16.00
2009,06,09,10,51,16.00
2009,06,09,10,52,16.10
2009,06,09,10,53,15.90
2009,06,09,10,54,15.90
2009,06,09,10,55,15.80
2009,06,09,10,56,15.80
2009,06,09,10,57,15.90
2009,06,09,10,58,16.00
2009,06,09,10,59,16.10
2009,06,09,11,00,16.10
2009,06,09,11,01,16.20
2009,06,09,11,02,16.20
2009,06,09,11,03,16.30
2009,06,09,11,04,16.30
2009,06,09,11,05,16.40
2009,06,09,11,06,16.30
2009,06,09,11,07,16.40
2009,06,09,11,08,16.50
2009,06,09,11,09,16.60
2009,06,09,11,10,16.60
2009,06,09,11,11,16.70
2009,06,09,11,12,16.70
2009,06,09,11,13,16.80
2009,06,09,11,14,16.90
2009,06,09,11,15,17.00
2009,06,09,11,16,17.00
2009,06,09,11,17,17.10
2009,06,09,11,18,17.10
2009,06,09,11,19,17.10
2009,06,09,11,20,17.30
2009,06,09,11,21,17.40
2009,06,09,11,22,17.60
2009,06,09,11,23,17.70
2009,06,09,11,24,17.90
2009,06,09,11,25,17.90
2009,06,09,11,26,17.90
2009,06,09,11,27,17.90
2009,06,09,11,28,17.80
2009,06,09,11,29,17.80
2009,06,09,11,30,17.90
2009,06,09,11,31,17.80
2009,06,09,11,32,17.70
2009,06,09,11,33,17.50
2009,06,09,11,34,17.50
2009,06,09,11,35,17.50
2009,06,09,11,36,17.60
2009,06,09,11,37,17.60
2009,06,09,11,38,17.60
2009,06,09,11,39,17.60
2009,06,09,11,40,17.60
2009,06,09,11,41,17.60
2009,06,09,11,42,17.70
2009,06,09,11,43,17.80
2009,06,09,11,44,17.90
2009,06,09,11,45,17.80
2009,06,09,11,46,17.90
2009,06,09,11,47,17.90
2009,06,09,11,48,18.00
2009,06,09,11,49,18.00
2009,06,09,11,50,17.90
2009,06,09,11,51,17.80
2009,06,09,11,52,17.80
2009,06,09,11,53,17.70
2009,06,09,11,54,17.70
2009,06,09,11,55,17.70
2009,06,09,11,56,17.60
2009,06,09,11,57,17.60
2009,06,09,11,58,17.60
2009,06,09,11,59,17.70
2009,06,09,12,00,17.70
2009,06,09,12,01,17.80
2009,06,09,12,02,17.90
2009,06,09,12,03,17.90
2009,06,09,12,04,17.90
2009,06,09,12,05,17.80
2009,06,09,12,06,17.80
2009,06,09,12,07,17.70
2009,06,09,12,08,17.70
2009,06,09,12,09,17.60
2009,06,09,12,10,17.50
2009,06,09,12,11,17.50
2009,06,09,12,12,17.50
2009,06,09,12,13,17.50
2009,06,09,12,14,17.60
2009,06,09,12,15,17.50
2009,06,09,12,16,17.50
2009,06,09,12,17,17.50
2009,06,09,12,18,17.50
2009,06,09,12,19,17.50
2009,06,09,12,20,17.40
2009,06,09,12,21,17.30
2009,06,09,12,22,17.30
2009,06,09,12,23,17.20
2009,06,09,12,24,17.10
2009,06,09,12,25,17.20
2009,06,09,12,26,17.20
2009,06,09,12,27,17.20
2009,06,09,12,28,17.20
2009,06,09,12,29,17.10
2009,06,09,12,30,17.00
2009,06,09,12,31,17.00
2009,06,09,12,32,17.00
2009,06,09,12,33,17.00
2009,06,09,12,34,17.00
2009,06,09,12,35,17.00
2009,06,09,12,36,17.00
2009,06,09,12,37,17.00
2009,06,09,12,38,17.10
2009,06,09,12,39,17.20
2009,06,09,12,40,17.10
2009,06,09,12,41,17.10
2009,06,09,12,42,17.10
2009,06,09,12,43,17.20
2009,06,09,12,44,17.20
2009,06,09,12,45,17.30
2009,06,09,12,46,17.40
2009,06,09,12,47,17.40
2009,06,09,12,48,17.40
2009,06,09,12,49,17.40
2009,06,09,12,50,17.40
2009,06,09,12,51,17.50
2009,06,09,12,52,17.50
2009,06,09,12,53,17.60
2009,06,09,12,54,17.70
2009,06,09,12,55,17.80
2009,06,09,12,56,17.80
2009,06,09,12,57,17.90
2009,06,09,12,58,18.00
2009,06,09,12,59,18.20
2009,06,09,13,00,18.20
2009,06,09,13,01,18.20
2009,06,09,13,02,18.20
2009,06,09,13,03,18.20
2009,06,09,13,04,18.20
2009,06,09,13,05,18.20
2009,06,09,13,06,18.20
2009,06,09,13,07,18.20
2009,06,09,13,08,18.30
2009,06,09,13,09,18.30
2009,06,09,13,10,18.30
2009,06,09,13,11,18.30
2009,06,09,13,12,18.50
2009,06,09,13,13,18.60
2009,06,09,13,14,18.80
2009,06,09,13,15,19.00
2009,06,09,13,16,19.10
2009,06,09,13,17,19.10
2009,06,09,13,18,19.10
2009,06,09,13,19,19.10
2009,06,09,13,20,19.00
2009,06,09,13,21,18.90
2009,06,09,13,22,18.90
2009,06,09,13,23,18.80
2009,06,09,13,24,18.80
2009,06,09,13,25,18.90
2009,06,09,13,26,19.00
2009,06,09,13,27,19.10
2009,06,09,13,28,19.30
2009,06,09,13,29,19.40
2009,06,09,13,30,19.60
2009,06,09,13,31,19.60
2009,06,09,13,32,19.80
2009,06,09,13,33,19.80
2009,06,09,13,34,19.70
2009,06,09,13,35,19.80
2009,06,09,13,36,19.80
2009,06,09,13,37,19.90
2009,06,09,13,38,19.80
2009,06,09,13,39,19.80
2009,06,09,13,40,19.80
2009,06,09,13,41,19.80
2009,06,09,13,42,19.90
2009,06,09,13,43,19.90
2009,06,09,13,44,19.90
2009,06,09,13,45,19.90
2009,06,09,13,46,19.80
2009,06,09,13,47,19.60
2009,06,09,13,48,19.70
2009,06,09,13,49,19.90
2009,06,09,13,50,19.90
2009,06,09,13,51,19.90
2009,06,09,13,52,19.90
2009,06,09,13,53,19.90
2009,06,09,13,54,19.90
2009,06,09,13,55,19.90
2009,06,09,13,56,20.10
2009,06,09,13,57,20.10
2009,06,09,13,58,20.00
2009,06,09,13,59,20.10
2009,06,09,14,00,20.10
2009,06,09,14,01,20.10
2009,06,09,14,02,20.10
2009,06,09,14,03,20.10
2009,06,09,14,04,20.10
2009,06,09,14,05,20.00
2009,06,09,14,06,20.10
2009,06,09,14,07,19.90
2009,06,09,14,08,19.80
2009,06,09,14,09,19.70
2009,06,09,14,10,19.70
2009,06,09,14,11,19.60
2009,06,09,14,12,19.70
2009,06,09,14,13,19.80
2009,06,09,14,14,19.70
2009,06,09,14,15,19.70
2009,06,09,14,16,19.70
2009,06,09,14,17,19.80
2009,06,09,14,18,19.80
2009,06,09,14,19,19.80
2009,06,09,14,20,19.90
2009,06,09,14,21,19.90
2009,06,09,14,22,19.90
2009,06,09,14,23,20.10
2009,06,09,14,24,20.10
2009,06,09,14,25,20.10
2009,06,09,14,26,20.20
2009,06,09,14,27,20.20
2009,06,09,14,28,20.20
2009,06,09,14,29,20.20
2009,06,09,14,30,20.20
2009,06,09,14,31,20.10
2009,06,09,14,32,19.90
2009,06,09,14,33,19.70
2009,06,09,14,34,19.70
2009,06,09,14,35,19.80
2009,06,09,14,36,19.90
2009,06,09,14,37,19.90
2009,06,09,14,38,19.90
2009,06,09,14,39,19.90
2009,06,09,14,40,19.90
2009,06,09,14,41,19.90
2009,06,09,14,42,20.00
2009,06,09,14,43,20.10
2009,06,09,14,44,20.20
2009,06,09,14,45,20.20
2009,06,09,14,46,20.20
2009,06,09,14,47,20.30
2009,06,09,14,48,20.40
2009,06,09,14,49,20.40
2009,06,09,14,50,20.30
2009,06,09,14,51,20.30
2009,06,09,14,52,20.40
2009,06,09,14,53,20.50
2009,06,09,14,54,20.50
2009,06,09,14,55,20.70
2009,06,09,14,56,20.70
2009,06,09,14,57,20.60
2009,06,09,14,58,20.50
2009,06,09,14,59,20.50
2009,06,09,15,00,20.50
2009,06,09,15,01,20.50
2009,06,09,15,02,20.40
2009,06,09,15,03,20.50
2009,06,09,15,04,20.60
2009,06,09,15,05,20.70
2009,06,09,15,06,20.80
2009,06,09,15,07,20.90
2009,06,09,15,08,21.00
2009,06,09,15,09,20.90
2009,06,09,15,10,20.80
2009,06,09,15,11,20.70
2009,06,09,15,12,20.60
2009,06,09,15,13,20.70
2009,06,09,15,14,20.60
2009,06,09,15,15,20.50
2009,06,09,15,16,20.50
2009,06,09,15,17,20.50
2009,06,09,15,18,20.60
2009,06,09,15,19,20.60
2009,06,09,15,20,20.50
2009,06,09,15,21,20.50
2009,06,09,15,22,20.40
2009,06,09,15,23,20.30
2009,06,09,15,24,20.30
2009,06,09,15,25,20.20
2009,06,09,15,26,20.20
2009,06,09,15,27,20.20
2009,06,09,15,28,20.20
2009,06,09,15,29,20.20
2009,06,09,15,30,20.30
2009,06,09,15,31,20.50
2009,06,09,15,32,20.50
2009,06,09,15,33,20.50
2009,06,09,15,34,20.50
2009,06,09,15,35,20.60
2009,06,09,15,36,20.80
2009,06,09,15,37,20.90
2009,06,09,15,38,21.00
2009,06,09,15,39,21.10
2009,06,09,15,40,21.20
2009,06,09,15,41,21.30
2009,06,09,15,42,21.30
2009,06,09,15,43,21.30
2009,06,09,15,44,21.40
2009,06,09,15,45,21.50
2009,06,09,15,46,21.40
2009,06,09,15,47,21.40
2009,06,09,15,48,21.30
2009,06,09,15,49,21.30
2009,06,09,15,50,21.20
2009,06,09,15,51,21.10
2009,06,09,15,52,20.90
2009,06,09,15,53,20.90
2009,06,09,15,54,20.90
2009,06,09,15,55,21.00
2009,06,09,15,56,21.10
2009,06,09,15,57,21.20
2009,06,09,15,58,21.10
2009,06,09,15,59,21.00
2009,06,09,16,00,21.00
2009,06,09,16,01,20.90
2009,06,09,16,02,21.00
2009,06,09,16,03,21.10
2009,06,09,16,04,21.10
2009,06,09,16,05,21.30
2009,06,09,16,06,21.40
2009,06,09,16,07,21.50
2009,06,09,16,08,21.60
2009,06,09,16,09,21.50
2009,06,09,16,10,21.40
2009,06,09,16,11,21.40
2009,06,09,16,12,21.30
2009,06,09,16,13,21.40
2009,06,09,16,14,21.60
2009,06,09,16,15,21.60
2009,06,09,16,16,21.60
2009,06,09,16,17,21.50
2009,06,09,16,18,21.40
2009,06,09,16,19,21.30
2009,06,09,16,20,21.30
2009,06,09,16,21,21.30
2009,06,09,16,22,21.30
2009,06,09,16,23,21.30
2009,06,09,16,24,21.30
2009,06,09,16,25,21.30
2009,06,09,16,26,21.30
2009,06,09,16,27,21.40
2009,06,09,16,28,21.50
2009,06,09,16,29,21.60
2009,06,09,16,30,21.60
2009,06,09,16,31,21.60
2009,06,09,16,32,21.70
2009,06,09,16,33,21.80
2009,06,09,16,34,21.80
2009,06,09,16,35,21.80
2009,06,09,16,36,21.80
2009,06,09,16,37,21.80
2009,06,09,16,38,21.80
2009,06,09,16,39,21.70
2009,06,09,16,40,21.60
2009,06,09,16,41,21.60
2009,06,09,16,42,21.60
2009,06,09,16,43,21.60
2009,06,09,16,44,21.60
2009,06,09,16,45,21.70
2009,06,09,16,46,21.70
2009,06,09,16,47,21.60
2009,06,09,16,48,21.70
2009,06,09,16,49,21.60
2009,06,09,16,50,21.60
2009,06,09,16,51,21.60
2009,06,09,16,52,21.50
2009,06,09,16,53,21.30
2009,06,09,16,54,21.30
2009,06,09,16,55,21.30
2009,06,09,16,56,21.20
2009,06,09,16,57,21.20
2009,06,09,16,58,21.30
2009,06,09,16,59,21.30
2009,06,09,17,00,21.30
2009,06,09,17,01,21.30
2009,06,09,17,02,21.40
2009,06,09,17,03,21.40
2009,06,09,17,04,21.40
2009,06,09,17,05,21.60
2009,06,09,17,06,21.60
2009,06,09,17,07,21.60
2009,06,09,17,08,21.60
2009,06,09,17,09,21.60
2009,06,09,17,10,21.60
2009,06,09,17,11,21.60
2009,06,09,17,12,21.60
2009,06,09,17,13,21.70
2009,06,09,17,14,21.80
2009,06,09,17,15,21.90
2009,06,09,17,16,22.00
2009,06,09,17,17,22.10
2009,06,09,17,18,22.00
2009,06,09,17,19,22.10
2009,06,09,17,20,22.10
2009,06,09,17,21,22.30
2009,06,09,17,22,22.40
2009,06,09,17,23,22.40